Helicity
8 12 8 23 24 7 -46 -27 86 89 80 112 140 144 168 250 191 131 162 131 153 98 66 53 47 37 39 39 34 31 33 38 34 28 21 18 13 4 6 15 9 4 -0 3 3 3 7 12 13
29 43 5 22 14 4 -68 -13 101 165 134 211 208 101 184 189 181 143 184 87 95 76 59 52 51 42 46 49 43 41 32 34 26 22 16 14 13 11 7 14 19 9 4 2 3 7 10 8 2
22 30 41 41 15 -29 -22 75 199 173 134 205 201 281 154 98 109 102 66 106 59 66 83 59 57 48 51 56 51 47 39 34 26 23 20 14 13 12 12 18 15 10 7 5 6 8 8 6 -0
47 33 39 63 7 -34 -22 123 81 106 168 117 199 149 174 181 70 94 127 134 166 97 72 68 73 59 54 52 50 44 37 37 32 25 18 11 6 7 7 10 12 7 5 5 4 5 7 4 2
29 72 50 44 10 13 66 48 115 60 87 123 106 135 117 113 95 69 123 94 115 84 65 80 74 74 71 63 56 50 41 36 26 17 11 7 1 4 2 -0 4 7 5 5 5 4 3 2 -1
61 36 78 35 -0 -16 81 140 120 107 99 112 228 179 69 33 73 66 87 99 84 60 81 84 71 82 74 69 57 51 44 31 24 12 6 2 -3 -4 -3 -2 1 4 5 3 3 2 -1 -5 -5
45 61 55 39 17 20 112 108 133 181 87 84 139 147 88 81 72 67 135 73 93 103 59 53 64 71 78 65 59 38 28 19 12 3 -6 -12 -20 -18 -13 -4 -2 -0 2 1 -1 -3 -5 1 -2
56 71 52 16 30 30 197 184 97 115 170 104 174 78 71 76 45 169 139 97 65 81 57 37 43 34 42 39 34 21 6 1 -10 -19 -36 -42 -38 -35 -31 -3 -5 -6 -6 -9 -14 -15 15 12 5
20 109 94 33 21 42 166 83 64 107 201 110 41 62 134 99 155 188 162 108 96 61 34 19 8 42 35 23 7 1 -12 -27 -20 -30 -36 -28 -14 -22 -5 9 -2 2 1 -6 -10 6 7 14 -4
61 93 78 31 34 35 183 48 94 102 86 136 189 220 151 63 157 106 113 121 105 76 37 29 55 31 -13 18 -30 -45 -16 6 39 61 48 26 35 16 4 -5 -6 -10 -7 -2 -0 8 15 13 25
-8 75 18 52 46 27 104 61 182 54 103 180 170 170 56 74 78 22 59 77 78 47 69 96 52 35 23 25 -5 89 119 85 49 63 97 51 35 40 33 7 10 -7 23 12 23 36 45 47 83
-7 17 45 21 32 24 135 151 193 48 202 325 168 111 48 79 116 58 124 240 330 252 152 159 180 143 166 108 145 123 111 88 53 40 55 63 44 41 32 41 37 49 92 59 55 55 58 94 130
-3 -2 3 44 47 38 73 62 -27 71 305 297 52 63 78 101 122 275 327 319 285 187 147 134 148 166 159 124 116 137 103 60 22 28 53 54 17 27 9 26 42 72 105 115 102 97 91 122 123
6 8 5 8 43 81 103 45 291 238 197 85 83 124 139 209 259 281 193 193 108 114 119 104 92 94 93 93 76 60 39 -8 -13 47 62 85 66 67 71 96 116 113 71 94 93 64 89 72 69
1 21 5 34 68 52 9 58 189 290 17 35 146 174 180 149 173 184 209 203 160 118 105 100 85 86 61 38 22 24 7 15 57 14 67 82 95 102 107 88 94 90 79 103 59 56 101 100 34
28 36 33 50 27 -1 17 37 79 -44 91 100 128 103 162 198 149 228 219 190 149 133 83 53 65 44 34 39 63 103 121 74 52 20 35 69 91 128 119 71 77 74 62 78 82 127 93 82 132
31 76 -5 27 20 5 67 45 183 80 190 190 147 171 224 150 218 168 168 167 164 105 186 121 75 77 61 73 47 52 92 77 68 68 55 51 81 70 55 74 105 99 69 136 158 152 78 25 33
117 40 28 -6 31 38 67 33 155 224 175 150 176 199 163 135 122 141 127 167 132 173 291 246 184 181 241 254 135 131 113 142 111 74 56 90 90 117 32 61 105 101 126 146 125 119 81 71 27
52 50 -11 -7 107 42 54 56 160 131 73 68 107 122 119 110 101 111 107 119 122 147 109 76 58 123 216 207 139 140 129 109 77 44 46 71 105 139 139 109 79 75 122 126 127 62 50 54 46
52 23 38 21 79 162 83 25 239 130 72 122 115 111 95 94 98 122 108 87 78 93 116 134 120 134 197 167 224 225 215 113 9 29 54 70 99 140 129 114 99 77 88 159 139 133 7 72 80
89 63 24 15 4 146 59 52 155 78 75 111 77 70 49 57 186 123 84 93 89 102 119 119 110 119 98 134 127 173 150 59 38 143 107 95 115 109 125 126 96 118 113 107 137 131 133 53 56
103 60 54 36 122 204 84 63 -5 328 218 95 128 95 39 74 170 113 110 120 110 117 132 110 108 95 114 69 67 41 97 181 205 169 89 132 169 141 137 103 110 125 113 124 109 118 118 92 102
77 53 58 65 66 79 79 77 25 312 210 213 228 151 107 120 156 128 112 129 100 124 132 105 114 124 115 132 83 131 153 113 129 170 244 275 278 181 157 154 135 112 113 97 98 106 110 116 72
25 43 48 82 74 143 136 87 31 175 210 122 133 235 105 168 159 125 117 140 119 148 167 166 130 145 126 107 120 159 164 150 154 109 123 143 151 168 156 118 127 160 75 76 75 84 102 87 108
50 49 158 195 240 235 88 98 119 60 146 161 183 231 131 136 201 143 163 161 147 206 205 193 153 169 134 134 131 133 145 140 123 128 149 176 162 147 137 127 101 77 79 76 78 70 76 73 75
107 105 236 204 227 198 52 103 59 43 42 98 151 140 148 185 204 206 188 165 180 223 239 167 140 204 155 154 161 156 150 144 140 129 134 159 121 100 83 77 69 68 74 79 67 62 40 49 39
67 101 56 95 55 87 92 65 5 83 74 142 184 157 169 214 228 237 193 190 211 272 241 166 154 213 166 169 166 150 99 121 114 140 134 159 121 79 64 76 77 71 77 62 65 57 45 42 32
48 70 98 79 192 154 98 35 91 120 150 118 130 67 185 233 242 284 239 278 251 260 235 192 154 256 198 179 153 135 133 134 173 163 174 140 86 103 78 71 60 63 61 68 50 40 33 33 32
111 102 92 87 107 181 189 88 47 263 191 168 143 102 63 212 288 261 344 355 276 243 258 209 173 279 232 211 148 155 163 179 188 173 160 133 113 76 80 67 63 51 50 51 38 33 41 38 35
55 125 81 181 93 145 118 112 64 148 82 62 55 87 34 139 264 343 381 376 306 279 250 219 181 297 240 191 151 157 184 193 177 184 143 106 86 69 67 46 57 53 58 57 57 61 42 45 41
Wind_Speed
54 52 45 47 38 36 55 38 52 30 26 25 33 23 24 30 31 19 27 30 32 27 27 27 30 30 30 31 30 29 30 30 26 23 21 21 19 16 12 9 7 6 6 6 7 8 9 14 20
49 54 42 39 42 49 44 50 26 20 16 19 26 20 26 26 27 28 22 29 31 30 26 26 28 29 30 28 27 27 28 30 28 25 23 23 20 21 18 12 11 10 10 11 13 17 21 24 25
46 47 44 41 50 56 52 39 19 15 15 18 20 26 28 18 23 19 25 24 24 31 27 25 26 27 27 25 24 24 25 27 27 26 25 23 22 21 21 19 17 16 17 19 21 24 28 31 32
37 35 44 53 58 41 45 25 22 18 16 20 20 25 20 26 20 14 21 18 23 28 26 24 24 24 25 25 24 24 24 25 25 26 25 25 24 23 22 23 22 21 22 24 26 29 32 35 37
41 47 50 56 58 68 38 21 18 18 22 22 16 19 18 19 16 18 16 14 16 22 24 23 22 24 24 25 24 24 24 24 25 25 25 24 22 23 23 23 25 26 27 29 31 33 35 37 39
45 44 61 58 67 64 25 24 16 22 23 18 17 14 23 10 10 13 10 14 15 17 20 23 21 24 24 25 25 24 24 24 24 23 23 23 21 21 23 24 25 27 28 30 32 34 36 38 39
58 54 61 77 73 67 18 13 15 11 20 26 7 21 9 6 7 5 9 16 15 17 19 19 19 21 22 22 23 23 22 22 22 21 20 19 19 19 20 22 23 26 28 29 32 36 37 33 33
58 65 80 75 78 74 15 15 21 14 14 9 10 24 13 4 8 6 7 7 12 13 16 14 16 17 18 18 20 20 20 19 19 20 20 23 25 25 22 26 26 27 29 33 34 38 28 40 40
59 70 68 78 77 71 6 9 15 9 7 12 11 16 9 13 8 4 1 5 6 9 11 12 15 14 15 16 17 18 18 18 19 21 25 27 31 25 26 29 30 31 33 35 39 41 40 40 39
59 55 71 82 76 76 14 14 9 6 4 11 13 11 10 16 6 7 6 5 7 6 8 10 10 10 13 13 15 16 17 22 22 25 28 28 27 28 28 31 32 34 37 37 41 40 46 41 42
37 69 57 86 81 72 29 17 12 15 11 12 6 10 10 15 5 5 2 4 4 3 8 11 11 14 18 16 18 18 16 19 23 28 32 31 30 31 32 33 33 37 40 41 42 41 44 43 44
48 44 84 78 76 70 29 29 38 60 34 16 16 11 15 10 3 0 4 5 5 6 10 14 17 17 20 21 21 18 22 25 29 30 33 33 34 36 38 39 42 42 44 46 43 43 39 41 42
51 47 52 84 73 54 14 19 8 16 15 21 20 14 13 12 3 3 6 6 8 10 13 17 20 21 22 21 24 24 25 25 28 32 35 36 36 38 38 38 38 40 44 47 48 45 44 40 42
42 47 69 59 57 52 52 33 15 27 19 9 13 20 13 8 3 4 6 7 10 12 14 14 15 18 20 22 23 24 24 25 27 34 36 36 37 38 40 40 42 44 45 46 44 41 37 38 43
57 44 59 46 44 52 47 49 37 18 7 32 15 11 5 2 2 4 6 7 9 11 12 13 15 15 17 21 22 24 25 28 29 31 35 36 36 39 39 39 41 44 45 46 44 43 38 40 41
57 49 54 36 35 43 54 50 13 16 4 5 2 8 6 5 4 3 2 6 8 11 11 10 11 15 19 23 24 24 27 26 28 30 34 35 37 38 38 39 41 44 43 43 42 42 39 41 40
55 50 51 34 23 27 41 62 26 23 14 10 9 10 7 7 5 5 5 8 8 13 10 8 10 13 19 17 18 20 24 27 28 31 34 35 37 37 36 38 41 41 42 43 44 43 43 37 34
49 48 39 39 24 26 31 45 16 12 11 15 13 10 9 10 9 10 9 8 14 15 17 16 19 17 23 21 21 22 24 27 30 31 33 35 36 39 34 36 39 39 41 43 44 43 43 44 43
49 49 47 35 30 26 30 40 31 27 20 21 14 14 11 12 10 13 14 12 11 11 12 11 10 18 20 18 18 20 25 25 26 29 32 34 35 36 37 36 36 38 39 41 44 42 44 45 43
76 53 59 66 35 34 34 39 29 23 24 22 17 14 13 12 16 13 11 12 7 5 4 8 8 12 14 13 20 21 19 23 23 25 30 34 34 35 34 35 36 35 38 41 43 46 40 45 47
78 77 61 58 61 37 40 47 30 33 23 24 17 15 19 23 22 17 19 14 5 4 1 8 11 10 13 14 15 18 18 15 19 28 31 30 32 32 32 34 35 38 38 39 42 44 44 39 45
75 73 67 56 35 47 44 56 46 34 26 19 16 20 25 26 21 20 18 15 10 5 3 7 12 13 14 18 21 20 17 15 21 23 21 29 31 30 32 32 34 36 37 40 39 42 42 41 42
70 63 68 63 56 49 50 64 71 39 34 27 24 19 25 27 26 22 19 15 12 13 12 11 12 10 10 11 13 15 18 19 20 20 22 26 29 27 29 31 33 33 36 38 37 38 40 42 42
53 58 59 70 68 66 67 62 77 41 33 30 24 24 28 30 26 21 18 15 12 9 9 7 7 4 7 8 9 10 12 16 18 17 19 21 23 27 29 30 31 33 32 35 36 38 39 40 43
55 57 59 70 79 74 57 77 61 60 35 36 28 27 29 30 28 25 23 17 14 12 9 7 5 3 3 4 6 8 10 12 13 14 16 18 20 23 25 26 27 29 32 34 35 36 39 41 43
67 67 63 69 71 67 57 70 78 54 39 28 26 29 29 28 28 29 23 18 16 15 13 10 8 5 2 2 4 6 7 10 11 12 13 16 18 20 22 24 27 29 30 31 34 36 38 40 42
62 76 66 57 62 66 64 65 53 46 42 36 28 30 33 29 29 31 24 21 18 17 15 14 11 6 4 1 2 6 5 7 8 10 12 15 17 19 21 23 25 27 29 31 33 35 37 39 41
72 60 72 68 64 75 63 63 60 43 37 27 24 24 35 35 32 29 26 23 18 16 14 12 10 7 5 2 2 5 7 6 7 7 9 11 13 16 18 20 23 25 27 29 31 33 36 39 42
74 75 68 69 66 67 65 67 46 45 38 36 32 36 34 37 35 28 25 23 19 17 15 14 13 10 7 3 2 2 5 5 6 5 6 8 10 12 14 17 21 23 25 27 29 33 36 39 42
73 72 61 68 73 67 60 62 32 30 35 30 40 32 31 24 34 29 24 24 21 20 17 16 13 11 8 5 3 2 2 3 2 3 4 7 7 8 12 15 18 20 23 26 28 32 35 38 42
Wind_Direction
273 277 288 289 294 295 277 282 218 319 320 337 359 13 11 342 329 351 55 64 68 65 68 60 58 52 50 48 45 41 36 30 16 4 356 355 350 343 333 315 288 280 291 259 241 261 291 324 339
283 274 287 295 282 278 290 289 318 354 0 0 347 357 357 348 14 65 54 67 70 77 69 63 61 56 51 45 39 35 34 30 20 8 358 358 351 352 347 325 318 313 310 319 326 336 342 344 336
282 276 282 281 274 271 277 335 14 342 354 358 338 346 331 13 25 33 74 55 54 85 73 69 63 57 50 41 32 27 24 23 16 8 2 354 353 349 353 350 336 329 333 340 343 346 352 356 348
288 288 281 272 269 277 282 321 346 13 355 337 355 323 337 337 346 36 74 42 61 69 68 68 64 56 49 43 35 27 21 15 12 7 0 356 354 354 352 353 353 344 339 342 345 352 0 2 5
274 277 272 271 271 264 282 323 326 330 328 334 344 328 329 343 24 74 70 48 55 60 66 65 59 58 50 44 37 31 22 17 9 5 3 354 343 354 350 349 353 356 351 354 357 358 359 3 3
267 269 264 267 262 262 285 287 304 309 318 320 336 343 316 343 39 83 48 56 57 61 63 69 58 60 52 47 40 33 24 15 9 354 345 346 334 334 347 344 347 347 346 342 344 345 345 353 2
258 263 262 248 249 247 281 296 301 303 297 296 322 307 350 317 64 79 47 60 61 68 68 67 61 57 48 42 37 27 20 10 359 345 319 303 289 289 313 320 318 328 334 325 328 345 12 45 50
257 260 252 254 247 252 265 283 294 287 295 304 299 292 278 187 94 80 47 38 51 54 67 64 59 51 38 25 29 20 3 352 338 331 295 253 240 248 298 336 305 301 310 317 305 317 68 15 15
255 257 259 244 241 243 241 285 295 295 307 288 297 293 147 144 128 66 315 330 16 24 46 48 64 42 13 20 14 2 339 327 326 300 269 268 240 320 320 338 328 324 316 311 334 4 11 15 17
251 256 253 227 234 238 250 267 259 243 286 278 317 79 124 143 135 251 266 264 295 342 18 24 32 7 22 4 23 356 327 306 305 307 299 309 306 310 311 330 339 350 334 351 360 9 349 9 6
241 254 256 231 238 255 261 258 243 262 248 196 183 138 144 149 162 116 243 255 273 332 1 6 15 334 317 320 308 315 335 326 322 312 304 311 316 312 309 321 351 349 353 351 355 1 358 3 1
252 256 241 239 242 261 270 282 283 261 288 171 141 128 138 158 163 290 312 19 52 33 350 336 325 324 316 306 302 306 305 313 313 319 314 312 309 313 311 314 321 335 335 343 358 3 11 9 8
252 259 258 241 257 268 247 288 164 213 121 86 95 127 127 127 124 30 15 4 333 317 318 318 309 317 309 307 298 303 309 315 318 321 321 315 311 313 324 337 344 346 339 339 342 351 359 12 9
257 257 251 254 262 269 261 273 270 340 355 173 153 119 121 105 114 294 343 347 338 330 320 317 322 319 303 300 302 304 315 322 328 327 324 320 323 317 321 330 335 335 343 344 349 358 4 11 9
253 256 255 259 261 263 263 257 265 250 199 131 123 118 116 136 134 298 323 349 9 353 334 318 311 314 301 295 307 312 317 318 331 337 329 328 324 321 328 337 335 337 341 345 353 354 10 10 18
251 258 251 258 257 257 255 253 252 148 209 209 144 129 154 136 139 88 11 24 23 33 13 348 330 298 291 292 303 310 319 326 334 341 335 332 330 329 334 338 337 338 348 348 355 357 11 4 4
247 247 251 252 234 249 256 254 254 229 223 204 180 183 203 219 254 259 290 305 347 7 7 314 337 311 283 308 313 318 322 327 334 336 334 337 334 337 343 341 337 346 353 350 352 354 6 23 29
236 242 246 250 227 235 255 254 220 211 219 227 203 193 203 226 239 253 250 278 301 351 8 344 286 301 292 307 300 314 321 326 332 337 334 338 337 334 345 348 347 349 352 352 353 356 358 358 359
243 243 248 245 230 224 250 254 249 259 252 253 224 230 236 236 232 240 247 257 290 332 358 347 348 291 314 302 304 317 313 320 331 339 343 341 340 339 341 344 350 357 358 355 353 4 2 355 353
243 243 248 250 237 232 246 253 235 234 233 236 213 215 206 191 175 178 212 242 267 306 37 56 356 43 14 17 327 320 329 316 321 337 345 342 341 339 339 343 347 353 355 359 353 358 9 7 3
242 245 247 248 254 230 251 254 232 192 193 193 202 200 185 177 170 168 163 161 191 266 50 77 81 57 70 44 18 344 349 1 316 325 333 353 347 342 342 344 354 358 5 7 2 359 1 7 11
241 242 250 247 226 240 248 256 248 219 231 224 206 192 179 176 172 172 171 171 172 153 121 96 96 93 67 65 63 62 37 6 333 350 354 347 345 353 359 1 4 7 5 5 8 5 2 6 5
245 245 247 248 243 249 246 256 257 218 226 222 204 199 187 180 176 181 184 180 171 149 142 130 120 99 80 44 57 28 38 35 27 17 351 339 348 359 4 5 7 10 8 8 6 11 9 8 11
247 247 245 246 250 248 247 254 249 237 234 239 219 190 192 184 182 188 187 182 185 181 166 152 141 111 95 74 57 20 27 29 32 41 30 28 30 25 18 20 18 16 15 21 15 12 11 11 11
242 241 238 240 242 251 249 251 255 257 236 221 217 202 195 193 188 185 180 192 201 196 196 184 187 176 107 53 24 24 27 29 36 37 25 21 11 9 11 8 9 10 17 18 19 17 14 16 13
238 237 241 239 242 251 255 251 253 260 255 238 222 204 200 198 196 184 187 198 194 195 190 199 201 202 182 92 358 0 27 18 21 31 44 36 29 23 34 28 25 26 19 14 16 19 21 19 18
237 239 245 252 253 253 255 258 262 271 254 272 215 201 208 205 203 188 196 193 192 187 186 184 187 196 198 225 337 323 347 10 35 44 50 40 47 50 44 32 28 25 21 27 25 17 16 18 18
245 243 240 244 250 250 257 255 252 254 261 252 238 239 212 208 199 193 191 188 191 189 192 193 195 185 182 180 288 300 315 341 5 25 23 40 55 49 42 36 32 27 27 24 29 27 21 20 12
237 242 241 248 252 255 257 259 288 244 254 254 253 257 249 211 200 197 189 184 186 183 184 186 181 167 167 185 236 262 301 323 341 356 26 35 46 47 39 38 36 33 33 34 31 28 17 15 11
242 242 241 242 242 252 261 257 305 268 262 262 263 246 253 214 200 192 192 184 184 179 177 187 199 181 182 191 218 225 278 315 329 7 42 64 58 44 46 51 44 35 29 23 20 13 14 9 9